Notices

Please take our survey and provide feedback: https://eccc.sondage-survey.ca/f/LanguageSelection.aspx?s=442ca660-fcf1-47c0-95a9-59707d6fd709

Please note that for the Engineering Climate Datasets, IDF dataset is available through this link.  Intensity-Duration-Frequency (IDF) Files: Includes the latest version of short-duration rainfall Intensity-Duration-Frequency (IDF) statistics in the form of tables and graphs with accompanying documentation for various locations across Canada.  Current IDF files can be accessed through our station finder application or downloaded for each province and territory across Canada.  In addition, historical versions of IDF files are also available for download.  Updates of IDF files are provided approximately every two years depending on the availability of data.   Thank you for your patience as we enhance our systems.

Hourly Data Report for November 27, 2019

QUALICUM BEACH AIRPORT
BRITISH COLUMBIA
Current Station Operator: ECCC - MSC

49°20'14.000" N
124°23'38.000" W
58.20 m
1026562
71766
VOQ

Download Data

Hourly Data (November 2019)
Hourly Data Report for November 27, 2019
TIME
LST
Temp Definition
°C
Dew Point Definition
°C
Rel Hum Definition
%
Precip. Amount Definition
mm

Wind Dir Definition
10's deg

Wind Spd Definition
km/h
Visibility Definition
km
Stn Press Definition
kPa
Hmdx Definition


Wind Chill Definition


Weather Definition


00:00 -0.7 -1.6 94 LegendMM 27 10   99.98   -4 LegendNANA
01:00 -0.5 -2.2 88 LegendMM 27 7   99.97   -3 LegendNANA
02:00 -0.8 -2.5 89 LegendMM 26 8   99.96   -4 LegendNANA
03:00 -0.8 -3.1 85 LegendMM 28 4   99.93   -2 LegendNANA
04:00 -1.8 -2.7 94 LegendMM 26 4   99.91   -3 LegendNANA
05:00 -2.2 -2.7 97 LegendMM 26 3   99.90   -3 LegendNANA
06:00 -2.1 -3.0 94 LegendMM 26 5   99.92   -4 LegendNANA
07:00 -2.9 -3.5 95 LegendMM 24 3   99.96   -4 LegendNANA
08:00 -2.1 -3.3 91 LegendMM 27 2   99.99   -3 LegendNANA
09:00 0.1 -3.5 77 LegendMM 28 7   100.02     LegendNANA
10:00 3.7 -4.4 55 LegendMM 29 20   100.08     LegendNANA
11:00 4.9 -4.0 53 LegendMM 28 13   100.08     LegendNANA
12:00 7.1 -7.8 34 LegendMM 36 6   100.07     LegendNANA
13:00 7.7 -9.6 28 LegendMM 35 8   100.06     LegendNANA
14:00 7.6 -10.0 27 LegendMM 5 8   100.03     LegendNANA
15:00 6.9 -10.1 29 LegendMM 4 5   100.06     LegendNANA
16:00 5.4 -9.3 34 LegendMM 5 3   100.11     LegendNANA
17:00 2.2 -6.3 54 LegendMM 27 6   100.15     LegendNANA
18:00 2.5 -6.9 50 LegendMM 19 7   100.24     LegendNANA
19:00 0.3 -4.8 69 LegendMM 22 3   100.32     LegendNANA
20:00 -1.2 -4.4 79 LegendMM 25 5   100.41   -3 LegendNANA
21:00 1.2 -7.5 52 LegendMM 28 6   100.47     LegendNANA
22:00 -0.7 -6.1 67 LegendMM 25 3   100.52   -2 LegendNANA
23:00 -0.2 -7.6 57 LegendMM 5 4   100.56   -1 LegendNANA

Notes on Data Quality.

Legend

  • E = Estimated
  • M = Missing
  • NA = Not Available*
  • [empty] = Indicates an unobserved value
Date modified: